Temp
9 9 9 9 9 8 8 8 8 8 7 7 7 7 6 6 5 5 5 5 5 4 5 5 4 5 4
9 10 9 9 8 7 7 6 7 7 6 6 6 6 6 5 5 5 4 4 5 5 4 4 4 4 4
8 8 7 7 5 5 5 6 7 6 6 6 6 5 5 5 5 4 4 4 4 4 3 3 3 3 3
6 6 6 5 4 5 5 5 5 5 6 6 6 5 5 4 4 3 3 3 3 2 2 2 2 3 3
5 4 4 3 3 4 4 4 5 5 5 5 5 4 4 3 3 3 3 2 2 2 2 2 2 2 2
4 4 4 3 2 3 3 4 4 4 4 4 3 3 3 3 2 3 2 2 2 2 1 1 1 2 2
4 3 4 2 2 3 3 3 3 3 3 3 3 3 3 2 2 2 1 1 1 1 1 1 1 1 1
3 3 3 2 2 2 2 2 2 2 2 2 3 3 2 2 1 1 0 1 1 1 1 -0 0 0 0
2 2 2 1 1 1 1 2 2 2 1 1 2 2 1 1 0 0 -0 0 1 1 0 -1 -1 -1 -1
-1 1 1 1 1 1 1 0 1 0 1 1 1 1 -0 -0 -0 -0 -0 -0 0 -0 -0 -1 -2 -2 -2
-1 0 -0 -0 -0 -0 -0 -0 -0 -1 -0 -1 -0 -1 -1 -0 0 -0 -1 -1 -1 -1 -1 -2 -2 -2 -1
-1 -1 -1 -1 -1 -1 -1 -1 -1 -1 -1 -1 -2 -2 -1 -1 -1 -0 -1 -1 -2 -2 -1 -1 -1 -1 -1
-1 -1 -1 -1 -1 -1 -1 -1 -1 -1 -1 -1 -2 -2 -2 -2 -2 -2 -2 -1 -2 -2 -1 -1 -2 -1 -1
-2 -2 -1 -1 -1 -1 -2 -2 -2 -2 -2 -2 -2 -2 -2 -3 -3 -2 -2 -2 -1 -2 -1 -1 -1 -1 -1
-2 -2 -2 -2 -2 -2 -2 -2 -3 -3 -3 -2 -2 -3 -2 -3 -3 -3 -2 -2 -1 -1 -1 -1 -1 -1 -1
-2 -2 -2 -2 -2 -2 -3 -3 -3 -3 -3 -3 -3 -3 -2 -2 -2 -2 -3 -2 -2 -2 -2 -1 -1 -1 -1
-2 -3 -3 -3 -3 -3 -3 -3 -3 -3 -3 -3 -3 -3 -3 -3 -2 -2 -2 -2 -2 -2 -1 -1 -1 -1 -0
Height
1540 1538 1537 1537 1536 1535 1534 1533 1533 1534 1535 1533 1535 1535 1535 1535 1536 1537 1534 1535 1537 1536 1536 1538 1540 1541 1544
1534 1533 1532 1531 1530 1529 1528 1527 1527 1530 1531 1529 1531 1531 1530 1530 1532 1532 1532 1533 1534 1534 1534 1535 1537 1538 1541
1527 1526 1525 1524 1525 1524 1522 1520 1521 1522 1524 1524 1525 1525 1526 1526 1527 1528 1528 1530 1530 1531 1532 1532 1533 1535 1538
1524 1520 1518 1518 1518 1521 1519 1517 1517 1517 1520 1521 1522 1521 1522 1522 1523 1524 1525 1526 1526 1527 1528 1529 1530 1532 1534
1522 1519 1515 1514 1513 1514 1512 1513 1511 1510 1513 1514 1515 1517 1518 1518 1519 1519 1521 1522 1523 1524 1525 1526 1528 1529 1530
1517 1514 1514 1510 1512 1511 1507 1507 1507 1507 1506 1508 1510 1512 1513 1514 1514 1515 1516 1517 1519 1520 1521 1523 1524 1526 1527
1512 1511 1510 1507 1509 1508 1505 1503 1502 1501 1501 1501 1503 1506 1508 1509 1510 1511 1512 1513 1515 1516 1517 1517 1519 1521 1523
1509 1507 1506 1505 1503 1503 1502 1500 1499 1497 1497 1498 1500 1501 1502 1504 1505 1506 1507 1509 1510 1511 1512 1513 1515 1517 1519
1505 1503 1502 1503 1502 1499 1497 1497 1495 1494 1494 1494 1496 1497 1498 1499 1499 1501 1502 1504 1505 1506 1507 1509 1511 1513 1516
1502 1499 1497 1497 1497 1495 1494 1494 1494 1493 1492 1493 1493 1494 1494 1493 1494 1496 1498 1499 1500 1501 1502 1505 1508 1510 1513
1500 1495 1494 1492 1492 1492 1492 1491 1491 1490 1489 1489 1489 1489 1490 1490 1491 1492 1493 1493 1495 1497 1499 1501 1504 1507 1509
1495 1494 1491 1487 1489 1489 1488 1489 1488 1486 1486 1486 1486 1487 1487 1487 1488 1489 1489 1490 1491 1493 1495 1498 1500 1503 1505
1489 1490 1486 1487 1486 1485 1485 1484 1483 1482 1481 1481 1482 1482 1483 1483 1484 1485 1485 1486 1487 1489 1491 1494 1497 1499 1501
1487 1487 1485 1484 1483 1482 1481 1480 1479 1478 1477 1476 1477 1477 1478 1479 1480 1481 1482 1483 1483 1485 1488 1490 1492 1494 1496
1484 1484 1482 1480 1479 1478 1477 1476 1475 1474 1473 1473 1473 1473 1474 1475 1476 1477 1478 1479 1481 1482 1484 1485 1487 1489 1490
1481 1479 1478 1477 1475 1475 1473 1472 1471 1471 1470 1469 1469 1469 1470 1472 1472 1473 1474 1475 1477 1479 1480 1481 1482 1484 1485
1475 1474 1473 1471 1471 1471 1470 1469 1468 1467 1467 1467 1467 1467 1467 1467 1468 1468 1470 1471 1472 1473 1475 1476 1477 1479 1480
Wind_Speed
23 24 25 27 26 24 24 23 22 21 20 18 21 20 18 18 19 16 14 15 13 14 20 20 13 11 9
20 22 24 26 25 25 24 24 22 21 21 20 22 22 20 19 20 17 16 15 14 15 16 14 13 11 10
19 21 22 22 23 23 21 19 23 23 23 21 23 22 20 18 17 16 16 17 18 18 15 15 15 13 12
19 19 20 20 20 22 21 21 21 23 25 25 23 20 21 16 18 17 18 18 18 18 17 16 16 14 14
18 19 16 15 17 21 22 22 22 24 24 24 23 22 19 16 17 15 18 18 17 17 16 16 16 16 15
17 17 16 15 17 20 21 22 23 24 24 26 24 21 19 18 15 16 17 18 17 17 17 18 17 16 15
17 18 18 16 17 18 17 20 22 21 17 18 22 23 21 17 18 19 18 18 18 18 18 19 19 18 17
17 16 17 17 17 17 16 17 17 19 20 19 18 18 19 20 20 19 19 20 19 19 18 19 18 17 18
17 15 16 16 16 16 15 15 14 15 15 16 16 16 18 20 19 20 20 20 19 18 18 19 18 17 19
17 15 15 15 14 14 15 15 15 14 14 15 16 16 11 16 19 19 19 21 19 18 17 18 18 19 19
18 16 15 14 13 12 12 13 14 15 14 11 13 13 15 12 9 14 20 21 17 17 17 18 19 20 19
16 14 13 13 14 13 13 14 14 14 15 15 15 13 15 16 16 15 17 19 20 17 18 19 19 20 19
15 15 13 14 14 14 15 16 16 16 16 16 18 18 18 18 18 16 16 17 20 20 20 20 19 19 19
15 15 15 14 14 14 14 14 14 14 14 15 16 17 18 19 19 17 15 10 16 21 21 22 21 21 21
17 16 15 14 13 13 13 13 13 13 12 13 14 15 16 17 18 18 17 17 16 11 20 21 21 21 21
18 17 16 15 14 13 13 12 12 13 13 13 13 13 14 15 17 18 20 19 19 19 19 20 19 18 19
21 19 17 16 16 15 14 13 13 13 13 13 12 12 13 14 13 11 19 20 20 22 22 21 19 16 18
Wind_Direction
270 272 269 268 268 266 266 270 267 270 264 271 262 269 263 264 270 257 256 258 260 246 241 240 231 250 262
278 277 276 274 271 269 265 268 265 263 266 265 260 256 258 259 265 258 248 248 246 249 251 256 244 250 252
285 286 284 281 277 274 274 265 262 254 262 266 257 254 259 258 258 249 249 251 250 253 252 244 250 253 247
298 297 290 284 276 275 272 267 263 261 262 262 261 259 260 254 254 251 252 252 252 248 246 242 245 247 246
302 306 305 292 282 275 273 272 269 257 261 261 259 258 255 255 260 255 256 251 249 243 240 239 241 245 242
299 305 306 301 289 282 272 272 273 264 258 257 253 257 249 264 260 255 248 246 246 246 245 247 246 243 242
299 302 303 299 293 286 286 271 268 267 262 260 248 247 247 256 259 255 249 248 249 250 252 251 247 241 236
285 289 294 290 284 286 289 284 278 263 257 254 252 244 248 256 254 247 248 252 254 254 246 244 244 234 226
276 282 286 288 285 283 282 282 280 269 252 242 245 255 262 255 250 250 248 252 251 249 244 235 234 227 218
293 286 283 284 282 283 280 274 267 266 261 248 254 259 259 257 251 247 247 248 249 246 237 226 223 218 220
283 278 277 279 282 281 280 276 265 255 253 258 255 254 249 253 267 258 244 245 244 238 228 221 218 219 224
278 277 276 278 276 277 276 270 265 261 257 255 259 257 259 263 264 266 254 245 235 231 222 221 222 226 229
276 272 277 279 281 279 274 270 266 262 260 257 257 256 256 259 262 261 256 255 234 227 223 224 230 230 233
272 273 276 279 283 283 279 273 269 264 260 258 255 253 254 254 254 254 249 243 230 225 227 234 236 237 237
270 272 275 278 279 281 279 275 271 269 265 261 258 256 255 254 253 251 243 236 233 232 232 237 239 242 246
269 270 272 275 277 279 277 274 273 271 268 265 261 260 260 259 256 251 244 238 238 240 243 243 244 245 248
267 267 267 271 272 276 277 274 273 272 269 265 266 265 262 265 260 260 250 242 242 244 245 246 248 244 246